FDX18 LFMN-EIDW

Flight info

Callsign FDX18
Flight time 2h 10m
Altitude 34000
Route BADOD DCT NEDRU DCT LTP DCT BULOL DCT IDAVO DCT BAGBI DCT SIZZA DCT LAULY DCT BRY DCT CLM DCT KOPOR DCT VESAN DCT RATUK DCT SOVAT L613 SANDY L722 ICTAM T421 DIDZA DCT CESQA DCT BIBPE DCT OKTAD DCT MEDOG DCT KRAGY DCT PEMOB/N0431F240 M17 VATRY VATRY4L
Aircraft B752/M-SDE3FGHIM3RWXY/LB1

Departure

Time 2026-05-07 12:06
Airport Nice-Côte d'Azur Airport (LFMN)

Arrival

Time 2026-05-07 14:17
Airport Dublin Airport (EIDW)
Time Latitude Longitude Altitude Speed Heading
2026-05-07 11:29 43.66361 7.20742 40 ft 0 kts 351°
2026-05-07 11:55 43.66349 7.20746 38 ft 2 kts 336°
2026-05-07 11:55 43.66336 7.20756 38 ft 2 kts 323°
2026-05-07 11:56 43.66325 7.20770 38 ft 2 kts 308°
2026-05-07 11:56 43.66317 7.20787 38 ft 2 kts 293°
2026-05-07 11:56 43.66313 7.20806 38 ft 2 kts 279°
2026-05-07 11:56 43.66312 7.20826 38 ft 2 kts 265°
2026-05-07 11:57 43.66315 7.20847 38 ft 2 kts 259°
2026-05-07 11:57 43.66317 7.20867 38 ft 2 kts 261°
2026-05-07 11:57 43.66319 7.20882 38 ft 0 kts 260°
2026-05-07 11:59 43.66319 7.20881 38 ft 0 kts 260°
2026-05-07 12:00 43.66317 7.20862 38 ft 3 kts 261°
2026-05-07 12:00 43.66312 7.20821 38 ft 5 kts 261°
2026-05-07 12:00 43.66296 7.20773 38 ft 5 kts 221°
2026-05-07 12:00 43.66251 7.20764 37 ft 7 kts 170°
2026-05-07 12:01 43.66183 7.20778 35 ft 12 kts 171°
2026-05-07 12:01 43.66081 7.20801 33 ft 17 kts 170°
2026-05-07 12:01 43.65985 7.20824 31 ft 11 kts 170°
2026-05-07 12:01 43.65890 7.20846 29 ft 15 kts 171°
2026-05-07 12:02 43.65768 7.20873 28 ft 19 kts 169°
2026-05-07 12:02 43.65620 7.20907 27 ft 22 kts 171°
2026-05-07 12:02 43.65450 7.20944 25 ft 26 kts 172°
2026-05-07 12:02 43.65331 7.20927 25 ft 16 kts 220°
2026-05-07 12:03 43.65243 7.20809 25 ft 19 kts 223°
2026-05-07 12:03 43.65143 7.20671 24 ft 22 kts 224°
2026-05-07 12:03 43.65022 7.20503 22 ft 26 kts 225°
2026-05-07 12:03 43.64909 7.20347 21 ft 16 kts 224°
2026-05-07 12:04 43.64856 7.20275 20 ft 6 kts 225°
2026-05-07 12:04 43.64813 7.20215 19 ft 11 kts 225°
2026-05-07 12:04 43.64776 7.20187 19 ft 0 kts 186°
2026-05-07 12:04 43.64775 7.20187 19 ft 1 kts 184°
2026-05-07 12:05 43.64748 7.20191 19 ft 5 kts 164°
2026-05-07 12:05 43.64714 7.20230 20 ft 7 kts 121°
2026-05-07 12:05 43.64711 7.20297 21 ft 7 kts 66°
2026-05-07 12:05 43.64737 7.20333 21 ft 9 kts 45°
2026-05-07 12:06 43.64937 7.20610 22 ft 74 kts 44°
2026-05-07 12:06 43.65465 7.21339 26 ft 139 kts 45°
2026-05-07 12:06 43.66286 7.22440 172 ft 182 kts 45°
2026-05-07 12:06 43.67159 7.23778 793 ft 193 kts 64°
2026-05-07 12:07 43.67442 7.25570 1316 ft 209 kts 97°
2026-05-07 12:07 43.66890 7.27487 1748 ft 220 kts 129°
2026-05-07 12:07 43.65904 7.29075 2570 ft 221 kts 131°
2026-05-07 12:07 43.64887 7.30665 3363 ft 222 kts 131°
2026-05-07 12:08 43.63959 7.32310 4091 ft 225 kts 114°
2026-05-07 12:08 43.63689 7.34427 4763 ft 230 kts 79°
2026-05-07 12:08 43.64187 7.36516 5471 ft 233 kts 68°
2026-05-07 12:08 43.64764 7.38630 6181 ft 237 kts 70°
2026-05-07 12:09 43.65322 7.40744 6889 ft 239 kts 69°
2026-05-07 12:09 43.65894 7.42908 7572 ft 242 kts 69°
2026-05-07 12:09 43.66468 7.45092 8230 ft 247 kts 69°
2026-05-07 12:09 43.67056 7.47335 8897 ft 249 kts 69°
2026-05-07 12:10 43.67755 7.49545 9327 ft 261 kts 52°
2026-05-07 12:10 43.69129 7.51242 9584 ft 277 kts 23°
2026-05-07 12:10 43.71019 7.51870 9921 ft 288 kts 356°
2026-05-07 12:10 43.73002 7.51267 9978 ft 294 kts 330°
2026-05-07 12:11 43.74556 7.49570 9995 ft 285 kts 304°
2026-05-07 12:11 43.75369 7.47117 9986 ft 282 kts 278°
2026-05-07 12:11 43.75309 7.44412 9982 ft 284 kts 261°
2026-05-07 12:11 43.75133 7.41726 9938 ft 284 kts 271°
2026-05-07 12:12 43.75251 7.38993 9954 ft 283 kts 276°
2026-05-07 12:12 43.75501 7.36319 9987 ft 284 kts 278°
2026-05-07 12:12 43.75835 7.33635 9944 ft 285 kts 280°
2026-05-07 12:12 43.76219 7.30968 9957 ft 282 kts 281°
2026-05-07 12:13 43.76631 7.28303 9973 ft 283 kts 282°
2026-05-07 12:13 43.77209 7.25700 10000 ft 290 kts 299°
2026-05-07 12:13 43.78430 7.23460 10520 ft 300 kts 308°
2026-05-07 12:13 43.79807 7.21142 10792 ft 319 kts 308°
2026-05-07 12:14 43.81259 7.18728 11048 ft 337 kts 309°
2026-05-07 12:14 43.82806 7.16186 11241 ft 356 kts 309°
2026-05-07 12:14 43.84434 7.13528 11713 ft 365 kts 309°
2026-05-07 12:14 43.86074 7.10854 12351 ft 369 kts 309°
2026-05-07 12:15 43.87745 7.08132 12955 ft 374 kts 309°
2026-05-07 12:15 43.89424 7.05396 13523 ft 378 kts 309°
2026-05-07 12:15 43.91125 7.02625 14168 ft 381 kts 309°
2026-05-07 12:15 43.92839 6.99828 14825 ft 383 kts 309°
2026-05-07 12:16 43.94582 6.96983 15488 ft 386 kts 309°
2026-05-07 12:16 43.96317 6.94148 16135 ft 388 kts 309°
2026-05-07 12:16 43.98049 6.91314 16707 ft 391 kts 309°
2026-05-07 12:16 43.99815 6.88424 17354 ft 392 kts 309°
2026-05-07 12:17 44.01572 6.85543 17940 ft 395 kts 308°
2026-05-07 12:17 44.03370 6.82593 18508 ft 399 kts 308°
2026-05-07 12:17 44.05144 6.79681 19108 ft 400 kts 308°
2026-05-07 12:17 44.06958 6.76697 19589 ft 406 kts 308°
2026-05-07 12:18 44.08761 6.73731 20167 ft 407 kts 308°
2026-05-07 12:18 44.10606 6.70691 20680 ft 410 kts 308°
2026-05-07 12:18 44.12429 6.67684 21175 ft 413 kts 308°
2026-05-07 12:18 44.14298 6.64599 21769 ft 413 kts 308°
2026-05-07 12:19 44.16146 6.61545 22195 ft 417 kts 308°
2026-05-07 12:19 44.18023 6.58440 22704 ft 419 kts 308°
2026-05-07 12:19 44.19899 6.55372 23118 ft 423 kts 310°
2026-05-07 12:19 44.22089 6.52604 23558 ft 428 kts 321°
2026-05-07 12:20 44.24585 6.50357 23909 ft 434 kts 327°
2026-05-07 12:20 44.27213 6.48208 24341 ft 436 kts 326°
2026-05-07 12:20 44.29815 6.46075 24756 ft 438 kts 327°
2026-05-07 12:20 44.32441 6.43932 25156 ft 440 kts 326°
2026-05-07 12:21 44.35065 6.41791 25544 ft 441 kts 326°
2026-05-07 12:21 44.37738 6.39612 25905 ft 443 kts 326°
2026-05-07 12:21 44.40379 6.37458 26246 ft 445 kts 326°
2026-05-07 12:21 44.43071 6.35261 26609 ft 447 kts 326°
2026-05-07 12:22 44.45746 6.33077 26985 ft 448 kts 326°
2026-05-07 12:22 44.48423 6.30887 27281 ft 451 kts 326°
2026-05-07 12:22 44.51143 6.28664 27632 ft 452 kts 325°
2026-05-07 12:22 44.53851 6.26445 27999 ft 453 kts 325°
2026-05-07 12:23 44.56582 6.24206 28284 ft 455 kts 325°
2026-05-07 12:23 44.59287 6.21985 28588 ft 457 kts 325°
2026-05-07 12:23 44.62063 6.19704 28889 ft 459 kts 325°
2026-05-07 12:23 44.64780 6.17469 29171 ft 460 kts 325°
2026-05-07 12:24 44.67572 6.15170 29514 ft 461 kts 325°
2026-05-07 12:24 44.70307 6.12916 29798 ft 462 kts 325°
2026-05-07 12:24 44.73063 6.10640 30014 ft 465 kts 325°
2026-05-07 12:24 44.75854 6.08335 30362 ft 464 kts 325°
2026-05-07 12:25 44.78642 6.06027 30531 ft 468 kts 325°
2026-05-07 12:25 44.81457 6.03697 30887 ft 467 kts 324°
2026-05-07 12:25 44.84230 6.01399 31227 ft 466 kts 324°
2026-05-07 12:25 44.87008 5.99093 31469 ft 467 kts 324°
2026-05-07 12:26 44.89785 5.96785 31802 ft 465 kts 324°
2026-05-07 12:26 44.92594 5.94449 32125 ft 464 kts 324°
2026-05-07 12:26 44.95321 5.92178 32428 ft 463 kts 324°
2026-05-07 12:26 44.98111 5.89851 32710 ft 463 kts 324°
2026-05-07 12:27 45.00864 5.87554 33019 ft 461 kts 324°
2026-05-07 12:27 45.03608 5.85259 33268 ft 461 kts 324°
2026-05-07 12:27 45.06354 5.82961 33572 ft 459 kts 324°
2026-05-07 12:27 45.09083 5.80588 33773 ft 458 kts 322°
2026-05-07 12:28 45.11739 5.78148 33960 ft 458 kts 322°
2026-05-07 12:28 45.17066 5.73271 33994 ft 456 kts 322°
2026-05-07 12:29 45.22372 5.68404 33992 ft 457 kts 322°
2026-05-07 12:29 45.27696 5.63511 33983 ft 457 kts 322°
2026-05-07 12:30 45.33020 5.58610 33978 ft 457 kts 322°
2026-05-07 12:30 45.38320 5.53719 33974 ft 457 kts 322°
2026-05-07 12:31 45.43658 5.48781 33978 ft 457 kts 322°
2026-05-07 12:31 45.49039 5.43980 33977 ft 461 kts 329°
2026-05-07 12:32 45.54902 5.40255 33979 ft 464 kts 332°
2026-05-07 12:32 45.60770 5.36597 33975 ft 463 kts 332°
2026-05-07 12:33 45.69635 5.31081 33986 ft 463 kts 332°
2026-05-07 12:33 45.75526 5.27412 33994 ft 463 kts 332°
2026-05-07 12:34 45.81433 5.23727 33984 ft 463 kts 332°
2026-05-07 12:34 45.87314 5.20049 33987 ft 463 kts 332°
2026-05-07 12:35 45.93233 5.16339 33981 ft 463 kts 332°
2026-05-07 12:35 45.99096 5.12655 33982 ft 463 kts 332°
2026-05-07 12:36 46.04988 5.08943 33984 ft 463 kts 332°
2026-05-07 12:36 46.10850 5.05220 33985 ft 463 kts 332°
2026-05-07 12:37 46.16725 5.01480 33984 ft 462 kts 332°
2026-05-07 12:37 46.22638 4.97707 33985 ft 463 kts 332°
2026-05-07 12:38 46.28508 4.93952 33986 ft 462 kts 332°
2026-05-07 12:38 46.34375 4.90190 33984 ft 463 kts 332°
2026-05-07 12:39 46.40225 4.86430 33987 ft 463 kts 333°
2026-05-07 12:39 46.46114 4.82636 33991 ft 463 kts 333°
2026-05-07 12:40 46.51971 4.78854 33996 ft 463 kts 333°
2026-05-07 12:40 46.57833 4.75060 33991 ft 462 kts 333°
2026-05-07 12:41 46.63709 4.71246 33997 ft 463 kts 333°
2026-05-07 12:41 46.69570 4.67433 33989 ft 463 kts 333°
2026-05-07 12:42 46.75424 4.63616 33986 ft 462 kts 333°
2026-05-07 12:42 46.81294 4.59779 33982 ft 464 kts 333°
2026-05-07 12:43 46.87191 4.55950 33984 ft 465 kts 333°
2026-05-07 12:43 46.93081 4.52117 33984 ft 465 kts 333°
2026-05-07 12:44 46.98987 4.48265 33988 ft 464 kts 333°
2026-05-07 12:44 47.04839 4.44439 33988 ft 464 kts 333°
2026-05-07 12:45 47.10728 4.40579 33988 ft 464 kts 333°
2026-05-07 12:45 47.16617 4.36709 33989 ft 464 kts 333°
2026-05-07 12:46 47.22498 4.32836 33997 ft 464 kts 333°
2026-05-07 12:46 47.28354 4.28969 33996 ft 464 kts 333°
2026-05-07 12:47 47.34243 4.25071 33998 ft 466 kts 333°
2026-05-07 12:47 47.40116 4.21173 33998 ft 465 kts 333°
2026-05-07 12:48 47.46022 4.17245 33996 ft 466 kts 333°
2026-05-07 12:48 47.51928 4.13307 33996 ft 466 kts 333°
2026-05-07 12:49 47.57776 4.09404 33991 ft 465 kts 333°
2026-05-07 12:49 47.63694 4.05447 33991 ft 466 kts 333°
2026-05-07 12:50 47.69597 4.01492 33989 ft 466 kts 333°
2026-05-07 12:50 47.75469 3.97547 33989 ft 466 kts 333°
2026-05-07 12:51 47.81368 3.93574 33990 ft 467 kts 333°
2026-05-07 12:51 47.87277 3.89584 33990 ft 467 kts 333°
2026-05-07 12:52 47.93163 3.85600 33994 ft 467 kts 333°
2026-05-07 12:52 47.99085 3.81582 33997 ft 467 kts 333°
2026-05-07 12:53 48.04985 3.77568 33996 ft 467 kts 333°
2026-05-07 12:53 48.10861 3.73560 34000 ft 467 kts 333°
2026-05-07 12:54 48.16343 3.68570 34013 ft 463 kts 317°
2026-05-07 12:54 48.20851 3.61727 34003 ft 462 kts 312°
2026-05-07 12:55 48.25236 3.54723 34004 ft 462 kts 311°
2026-05-07 12:55 48.29605 3.47649 34008 ft 463 kts 311°
2026-05-07 12:56 48.33953 3.40561 34008 ft 462 kts 311°
2026-05-07 12:56 48.38303 3.33501 34010 ft 463 kts 314°
2026-05-07 12:57 48.43525 3.27922 34023 ft 468 kts 332°
2026-05-07 12:57 48.49488 3.23978 34011 ft 469 kts 334°
2026-05-07 12:58 48.55458 3.20111 34011 ft 469 kts 335°
2026-05-07 12:58 48.61448 3.16252 34010 ft 469 kts 335°
2026-05-07 12:59 48.67433 3.12400 34011 ft 469 kts 335°
2026-05-07 12:59 48.73435 3.08532 34010 ft 470 kts 335°
2026-05-07 13:00 48.79413 3.04671 34011 ft 470 kts 335°
2026-05-07 13:00 48.85359 3.00557 34018 ft 468 kts 329°
2026-05-07 13:01 48.90994 2.95673 34016 ft 469 kts 328°
2026-05-07 13:01 48.96634 2.90760 34017 ft 468 kts 328°
2026-05-07 13:02 49.02251 2.85841 34027 ft 467 kts 328°
2026-05-07 13:02 49.07863 2.80909 34032 ft 467 kts 328°
2026-05-07 13:03 49.13475 2.75962 34026 ft 467 kts 328°
2026-05-07 13:03 49.19107 2.70982 34021 ft 468 kts 328°
2026-05-07 13:04 49.24730 2.65999 34017 ft 469 kts 328°
2026-05-07 13:04 49.30349 2.61005 34019 ft 468 kts 328°
2026-05-07 13:05 49.35938 2.56024 34018 ft 468 kts 328°
2026-05-07 13:05 49.41578 2.50984 34017 ft 468 kts 328°
2026-05-07 13:06 49.47180 2.45965 34015 ft 467 kts 328°
2026-05-07 13:06 49.52951 2.41582 34027 ft 471 kts 340°
2026-05-07 13:07 49.59233 2.38662 34011 ft 472 kts 341°
2026-05-07 13:07 49.65505 2.35783 34012 ft 472 kts 342°
2026-05-07 13:08 49.71828 2.32892 34016 ft 472 kts 341°
2026-05-07 13:08 49.78107 2.30021 34015 ft 472 kts 341°
2026-05-07 13:09 49.84360 2.27155 34021 ft 472 kts 341°
2026-05-07 13:09 49.90673 2.24256 34016 ft 472 kts 341°
2026-05-07 13:10 49.96958 2.21363 34014 ft 472 kts 341°
2026-05-07 13:10 50.03191 2.18485 34013 ft 472 kts 341°
2026-05-07 13:11 50.09463 2.15582 34016 ft 472 kts 341°
2026-05-07 13:11 50.15774 2.12652 34024 ft 472 kts 341°
2026-05-07 13:12 50.22052 2.09730 34030 ft 472 kts 341°
2026-05-07 13:12 50.28304 2.06812 34029 ft 472 kts 341°
2026-05-07 13:13 50.34574 2.03698 34035 ft 470 kts 335°
2026-05-07 13:13 50.40064 1.98408 34046 ft 466 kts 318°
2026-05-07 13:14 50.45025 1.91858 34033 ft 466 kts 317°
2026-05-07 13:14 50.49884 1.85315 34040 ft 466 kts 317°
2026-05-07 13:15 50.54773 1.78657 34046 ft 465 kts 317°
2026-05-07 13:15 50.59649 1.71977 34044 ft 466 kts 317°
2026-05-07 13:16 50.64518 1.65278 34046 ft 466 kts 317°
2026-05-07 13:16 50.69354 1.58596 34047 ft 467 kts 317°
2026-05-07 13:17 50.74245 1.51818 34045 ft 467 kts 317°
2026-05-07 13:17 50.79074 1.45106 34045 ft 467 kts 317°
2026-05-07 13:18 50.83934 1.38337 34045 ft 467 kts 317°
2026-05-07 13:18 50.88799 1.31542 34051 ft 466 kts 316°
2026-05-07 13:19 50.93641 1.24758 34057 ft 467 kts 316°
2026-05-07 13:19 50.98509 1.17921 34054 ft 467 kts 316°
2026-05-07 13:20 51.03299 1.11051 34054 ft 465 kts 311°
2026-05-07 13:20 51.06951 1.02727 34068 ft 463 kts 293°
2026-05-07 13:21 51.09264 0.93184 34060 ft 464 kts 289°
2026-05-07 13:21 51.11417 0.83608 34050 ft 462 kts 288°
2026-05-07 13:22 51.13524 0.73996 34047 ft 462 kts 288°
2026-05-07 13:22 51.15609 0.64362 34040 ft 463 kts 288°
2026-05-07 13:23 51.17688 0.54678 34046 ft 465 kts 288°
2026-05-07 13:23 51.19756 0.44982 34046 ft 464 kts 288°
2026-05-07 13:24 51.21819 0.35262 34039 ft 464 kts 288°
2026-05-07 13:24 51.23865 0.25571 34045 ft 464 kts 287°
2026-05-07 13:25 51.25895 0.15912 34044 ft 464 kts 287°
2026-05-07 13:25 51.27932 0.06169 34045 ft 465 kts 287°
2026-05-07 13:26 51.29958 -0.03564 34041 ft 466 kts 287°
2026-05-07 13:26 51.31997 -0.13410 34048 ft 469 kts 287°
2026-05-07 13:27 51.34020 -0.23226 34041 ft 466 kts 287°
2026-05-07 13:27 51.36025 -0.33008 34040 ft 467 kts 287°
2026-05-07 13:28 51.38046 -0.42915 34041 ft 469 kts 287°
2026-05-07 13:28 51.40051 -0.52792 34041 ft 470 kts 287°
2026-05-07 13:29 51.42049 -0.62688 34040 ft 472 kts 287°
2026-05-07 13:29 51.44061 -0.72696 34038 ft 470 kts 286°
2026-05-07 13:30 51.46031 -0.82550 34036 ft 470 kts 286°
2026-05-07 13:30 51.48028 -0.92593 34039 ft 473 kts 286°
2026-05-07 13:31 51.50006 -1.02591 34032 ft 471 kts 286°
2026-05-07 13:31 51.51976 -1.12592 34038 ft 474 kts 287°
2026-05-07 13:32 51.54765 -1.22148 34042 ft 475 kts 298°
2026-05-07 13:32 51.57970 -1.31404 34033 ft 476 kts 298°
2026-05-07 13:33 51.61015 -1.40768 34041 ft 474 kts 291°
2026-05-07 13:33 51.63411 -1.50639 34037 ft 475 kts 290°
2026-05-07 13:34 51.66962 -1.65462 34029 ft 474 kts 289°
2026-05-07 13:35 51.69311 -1.75365 34036 ft 477 kts 290°
2026-05-07 13:35 51.71584 -1.85351 34037 ft 476 kts 284°
2026-05-07 13:36 51.73164 -1.95626 34034 ft 475 kts 282°
2026-05-07 13:36 51.74716 -2.05989 34042 ft 475 kts 282°
2026-05-07 13:37 51.76232 -2.16254 34038 ft 474 kts 282°
2026-05-07 13:37 51.77743 -2.26571 34036 ft 475 kts 282°
2026-05-07 13:38 51.79251 -2.36946 34029 ft 475 kts 282°
2026-05-07 13:38 51.80738 -2.47248 34025 ft 474 kts 282°
2026-05-07 13:39 51.82216 -2.57680 34026 ft 474 kts 282°
2026-05-07 13:39 51.83616 -2.67999 34020 ft 474 kts 281°
2026-05-07 13:40 51.85018 -2.78393 34016 ft 474 kts 281°
2026-05-07 13:40 51.86403 -2.88731 34011 ft 474 kts 281°
2026-05-07 13:41 51.87788 -2.99138 34010 ft 474 kts 281°
2026-05-07 13:41 51.89153 -3.09475 34007 ft 473 kts 281°
2026-05-07 13:42 51.90517 -3.19872 34002 ft 472 kts 281°
2026-05-07 13:42 51.91861 -3.30202 33999 ft 471 kts 281°
2026-05-07 13:43 51.93204 -3.40602 33998 ft 472 kts 281°
2026-05-07 13:43 51.94537 -3.50991 33995 ft 472 kts 281°
2026-05-07 13:44 51.95856 -3.61358 33997 ft 472 kts 281°
2026-05-07 13:44 51.97164 -3.71714 33995 ft 472 kts 280°
2026-05-07 13:45 51.98468 -3.82118 33992 ft 471 kts 280°
2026-05-07 13:45 51.99767 -3.92556 33994 ft 471 kts 280°
2026-05-07 13:46 52.01046 -4.02915 33989 ft 469 kts 280°
2026-05-07 13:46 52.02305 -4.13189 33991 ft 469 kts 280°
2026-05-07 13:47 52.03571 -4.23608 33993 ft 471 kts 280°
2026-05-07 13:47 52.04824 -4.33991 33989 ft 471 kts 280°
2026-05-07 13:48 52.06070 -4.44402 33991 ft 470 kts 279°
2026-05-07 13:48 52.07303 -4.54799 33991 ft 469 kts 280°
2026-05-07 13:49 52.08517 -4.65104 33989 ft 467 kts 279°
2026-05-07 13:49 52.09123 -4.70271 33979 ft 456 kts 279°
2026-05-07 13:49 52.09699 -4.75209 33895 ft 444 kts 279°
2026-05-07 13:49 52.10273 -4.80151 33400 ft 446 kts 279°
2026-05-07 13:50 52.10844 -4.85095 32908 ft 448 kts 279°
2026-05-07 13:50 52.11410 -4.90008 32403 ft 448 kts 279°
2026-05-07 13:50 52.11983 -4.94994 31892 ft 448 kts 279°
2026-05-07 13:50 52.12548 -4.99942 31321 ft 449 kts 279°
2026-05-07 13:51 52.13280 -5.04875 30746 ft 452 kts 287°
2026-05-07 13:51 52.14497 -5.09575 30175 ft 455 kts 296°
2026-05-07 13:51 52.16200 -5.13943 29598 ft 458 kts 306°
2026-05-07 13:51 52.18312 -5.17788 28953 ft 459 kts 315°
2026-05-07 13:52 52.20770 -5.20995 28357 ft 454 kts 325°
2026-05-07 13:52 52.23472 -5.23505 27761 ft 449 kts 332°
2026-05-07 13:52 52.26247 -5.25793 27177 ft 445 kts 332°
2026-05-07 13:52 52.28979 -5.28058 26618 ft 441 kts 332°
2026-05-07 13:53 52.31711 -5.30316 26075 ft 437 kts 332°
2026-05-07 13:53 52.34405 -5.32543 25554 ft 434 kts 332°
2026-05-07 13:53 52.37061 -5.34737 25046 ft 431 kts 332°
2026-05-07 13:53 52.39738 -5.36950 24534 ft 427 kts 332°
2026-05-07 13:54 52.42356 -5.39117 24022 ft 425 kts 332°
2026-05-07 13:54 52.44974 -5.41287 23481 ft 422 kts 332°
2026-05-07 13:54 52.47573 -5.43442 22963 ft 417 kts 332°
2026-05-07 13:54 52.50144 -5.45578 22463 ft 414 kts 331°
2026-05-07 13:55 52.52699 -5.47703 21969 ft 411 kts 331°
2026-05-07 13:55 52.55247 -5.49711 21476 ft 410 kts 337°
2026-05-07 13:55 52.57970 -5.51220 20970 ft 408 kts 341°
2026-05-07 13:55 52.60656 -5.52623 20461 ft 405 kts 341°
2026-05-07 13:56 52.63302 -5.53999 19968 ft 401 kts 341°
2026-05-07 13:56 52.65963 -5.55376 19484 ft 397 kts 341°
2026-05-07 13:56 52.68557 -5.56717 19015 ft 395 kts 341°
2026-05-07 13:56 52.71185 -5.58074 18548 ft 392 kts 341°
2026-05-07 13:57 52.73772 -5.59410 18061 ft 390 kts 341°
2026-05-07 13:57 52.76331 -5.60731 17582 ft 387 kts 341°
2026-05-07 13:57 52.78893 -5.62057 17101 ft 385 kts 341°
2026-05-07 13:57 52.81440 -5.63375 16626 ft 383 kts 341°
2026-05-07 13:58 52.83953 -5.64676 16157 ft 381 kts 341°
2026-05-07 13:58 52.86472 -5.65982 15690 ft 378 kts 340°
2026-05-07 13:58 52.88961 -5.67276 15230 ft 376 kts 340°
2026-05-07 13:58 52.91459 -5.68574 14766 ft 374 kts 340°
2026-05-07 13:59 52.93905 -5.69847 14317 ft 372 kts 340°
2026-05-07 13:59 52.96353 -5.71123 13870 ft 370 kts 340°
2026-05-07 13:59 52.98794 -5.72399 13421 ft 368 kts 340°
2026-05-07 13:59 53.01236 -5.73675 12974 ft 365 kts 341°
2026-05-07 14:00 53.03639 -5.74930 12529 ft 363 kts 341°
2026-05-07 14:00 53.06015 -5.76172 12092 ft 360 kts 341°
2026-05-07 14:00 53.08406 -5.77426 11652 ft 359 kts 340°
2026-05-07 14:00 53.10760 -5.78798 11210 ft 355 kts 332°
2026-05-07 14:01 53.12779 -5.80983 10796 ft 350 kts 315°
2026-05-07 14:01 53.14336 -5.84073 10399 ft 344 kts 298°
2026-05-07 14:01 53.15370 -5.87536 10276 ft 327 kts 292°
2026-05-07 14:01 53.16309 -5.90875 9938 ft 308 kts 292°
2026-05-07 14:02 53.17155 -5.93982 9540 ft 289 kts 291°
2026-05-07 14:02 53.17943 -5.96932 9315 ft 264 kts 291°
2026-05-07 14:02 53.18667 -5.99676 9296 ft 265 kts 291°
2026-05-07 14:02 53.19421 -6.02568 9297 ft 276 kts 291°
2026-05-07 14:03 53.20187 -6.05508 9251 ft 273 kts 291°
2026-05-07 14:03 53.20934 -6.08384 9139 ft 271 kts 291°
2026-05-07 14:03 53.21677 -6.11252 8994 ft 271 kts 291°
2026-05-07 14:03 53.22426 -6.14149 8858 ft 271 kts 291°
2026-05-07 14:04 53.23160 -6.16995 8704 ft 271 kts 291°
2026-05-07 14:04 53.23905 -6.19883 8546 ft 270 kts 291°
2026-05-07 14:04 53.24648 -6.22774 8355 ft 271 kts 291°
2026-05-07 14:04 53.25387 -6.25654 8023 ft 272 kts 291°
2026-05-07 14:05 53.26127 -6.28536 7698 ft 267 kts 291°
2026-05-07 14:05 53.26848 -6.31349 7477 ft 262 kts 291°
2026-05-07 14:05 53.27560 -6.34132 7311 ft 264 kts 291°
2026-05-07 14:05 53.28274 -6.36956 7230 ft 255 kts 287°
2026-05-07 14:06 53.28512 -6.39695 6973 ft 232 kts 256°
2026-05-07 14:06 53.27845 -6.42051 7052 ft 230 kts 230°
2026-05-07 14:06 53.26730 -6.44077 7039 ft 241 kts 225°
2026-05-07 14:06 53.25535 -6.46024 6943 ft 241 kts 223°
2026-05-07 14:07 53.24298 -6.47879 6922 ft 230 kts 221°
2026-05-07 14:07 53.23086 -6.49614 6968 ft 234 kts 220°
2026-05-07 14:07 53.21918 -6.51521 6966 ft 236 kts 238°
2026-05-07 14:07 53.21433 -6.54070 7014 ft 238 kts 269°
2026-05-07 14:08 53.21849 -6.56795 6932 ft 247 kts 301°
2026-05-07 14:08 53.23056 -6.58769 6840 ft 251 kts 332°
2026-05-07 14:08 53.24742 -6.59579 6729 ft 254 kts 351°
2026-05-07 14:08 53.26489 -6.59971 6558 ft 254 kts 349°
2026-05-07 14:09 53.28189 -6.60695 6401 ft 249 kts 337°
2026-05-07 14:09 53.29741 -6.61876 6262 ft 247 kts 330°
2026-05-07 14:09 53.31229 -6.63316 6126 ft 248 kts 326°
2026-05-07 14:09 53.32660 -6.64882 5990 ft 247 kts 323°
2026-05-07 14:10 53.34060 -6.66538 5860 ft 245 kts 321°
2026-05-07 14:10 53.35428 -6.68216 5721 ft 245 kts 324°
2026-05-07 14:10 53.37027 -6.69238 5502 ft 250 kts 355°
2026-05-07 14:10 53.38771 -6.69121 5291 ft 251 kts
2026-05-07 14:11 53.40505 -6.68892 5039 ft 250 kts
2026-05-07 14:11 53.42168 -6.68187 4740 ft 250 kts 30°
2026-05-07 14:11 53.43372 -6.66248 4498 ft 235 kts 65°
2026-05-07 14:11 53.43766 -6.63680 4083 ft 226 kts 95°
2026-05-07 14:12 53.43700 -6.61108 3698 ft 221 kts 89°
2026-05-07 14:12 53.43891 -6.58604 3442 ft 214 kts 80°
2026-05-07 14:12 53.44258 -6.56180 3047 ft 213 kts 75°
2026-05-07 14:12 53.44698 -6.53933 2968 ft 194 kts 72°
2026-05-07 14:13 53.45026 -6.51907 2971 ft 169 kts 96°
2026-05-07 14:13 53.44923 -6.50020 2782 ft 159 kts 101°
2026-05-07 14:13 53.44800 -6.48214 2530 ft 154 kts 98°
2026-05-07 14:13 53.44713 -6.46383 2347 ft 170 kts 98°
2026-05-07 14:14 53.44596 -6.44309 2202 ft 188 kts 98°
2026-05-07 14:14 53.44487 -6.42116 1945 ft 184 kts 98°
2026-05-07 14:14 53.44384 -6.40080 1682 ft 169 kts 98°
2026-05-07 14:14 53.44285 -6.38232 1462 ft 154 kts 99°
2026-05-07 14:15 53.44192 -6.36528 1251 ft 139 kts 98°
2026-05-07 14:15 53.44109 -6.34998 1077 ft 130 kts 99°
2026-05-07 14:15 53.44009 -6.33405 949 ft 140 kts 100°
2026-05-07 14:15 53.43907 -6.31769 760 ft 145 kts 100°
2026-05-07 14:16 53.43819 -6.30077 591 ft 146 kts 96°
2026-05-07 14:16 53.43738 -6.28382 336 ft 146 kts 99°
2026-05-07 14:16 53.43646 -6.26810 231 ft 114 kts 95°
2026-05-07 14:16 53.43601 -6.25952 220 ft 62 kts 96°
2026-05-07 14:17 53.43568 -6.25422 212 ft 36 kts 101°
2026-05-07 14:17 53.43507 -6.25161 211 ft 18 kts 120°
2026-05-07 14:17 53.43468 -6.25048 211 ft 1 kts 123°
2026-05-07 14:17 53.43452 -6.25014 211 ft 4 kts 135°
2026-05-07 14:18 53.43420 -6.24986 211 ft 5 kts 180°
2026-05-07 14:18 53.43391 -6.25023 211 ft 5 kts 246°
2026-05-07 14:18 53.43389 -6.25090 211 ft 5 kts 271°
2026-05-07 14:18 53.43389 -6.25181 211 ft 10 kts 271°
2026-05-07 14:19 53.43395 -6.25314 212 ft 12 kts 275°
2026-05-07 14:19 53.43401 -6.25428 214 ft 9 kts 275°
2026-05-07 14:19 53.43407 -6.25544 215 ft 4 kts 274°
2026-05-07 14:19 53.43409 -6.25589 215 ft 0 kts 273°
2026-05-07 14:20 53.43410 -6.25626 216 ft 6 kts 271°
2026-05-07 14:20 53.43405 -6.25686 217 ft 9 kts 253°
2026-05-07 14:20 53.43366 -6.25854 220 ft 8 kts 245°
2026-05-07 14:20 53.43310 -6.25911 220 ft 12 kts 174°
2026-05-07 14:21 53.43212 -6.25846 218 ft 18 kts 156°
2026-05-07 14:21 53.43076 -6.25746 215 ft 24 kts 157°
2026-05-07 14:21 53.42907 -6.25624 214 ft 28 kts 157°
2026-05-07 14:21 53.42737 -6.25501 212 ft 15 kts 158°
2026-05-07 14:22 53.42704 -6.25480 211 ft 6 kts 159°
2026-05-07 14:22 53.42656 -6.25499 210 ft 8 kts 219°
2026-05-07 14:22 53.42609 -6.25575 212 ft 9 kts 225°
2026-05-07 14:22 53.42560 -6.25658 214 ft 10 kts 225°
2026-05-07 14:23 53.42509 -6.25746 214 ft 5 kts 226°
2026-05-07 14:23 53.42480 -6.25800 214 ft 7 kts 238°
2026-05-07 14:23 53.42484 -6.25880 215 ft 7 kts 303°
2026-05-07 14:23 53.42501 -6.25961 216 ft 7 kts 277°
2026-05-07 14:24 53.42506 -6.26047 218 ft 7 kts 275°
2026-05-07 14:24 53.42511 -6.26135 220 ft 7 kts 275°
2026-05-07 14:24 53.42516 -6.26224 221 ft 7 kts 276°
2026-05-07 14:24 53.42518 -6.26307 223 ft 4 kts 246°
2026-05-07 14:25 53.42483 -6.26322 223 ft 7 kts 185°
2026-05-07 14:25 53.42438 -6.26329 222 ft 4 kts 185°
2026-05-07 14:25 53.42431 -6.26330 222 ft 0 kts 186°